Hovedside
METAR-TAF:

METAR-TAF

Lufthavner :

Vilhelmina, Sverige

breddegrad: 64-34-44N, lengdegrad: 016-50-00E, høyde over havet: 347 m

Gjeldene værobservasjon

Denne rapporten ble laget for 26 minutter siden, klokken 07:20 UTC
Vind 6 kt fra Øst-sørøst
Temperatur -1°C
Luftfuktighet 86%
Trykk 1026 hPa
Sikt 10 km eller mer
Overskyet i en høyde av 3000 ft

METAR: ESNV 240720Z 12006KT 9999 OVC030 M01/M03 Q1026

Tid: 09:46 (07:46 UTC)


TAF: fraværende

Værobservasjoner og værvarsel for over 4000 flyplasser (METAR- og TAF-rapporter).

Tilgjengelige stasjoner er representert av de røde og gule prikkene på kartet.

Hold musepekeren over prikken for å se navnet på stasjonen.

Klikk så for å se værobservasjoner og -varsler.

For å forandre kartet kan du klikke på den grønne knappen med svart kryss for å zoome inn, på den grønne knappen med strek for å zoome ut, eller på de grønne pilene for å se tilstøtende kart.


METAR-TAF: